Location: *
(32.8140°S, 174.6161°E)
Time: 19:40:29
(UTC+00:00)

USA 215 - Pass Details

Date: 10 December 2019
Orbit: 1099 x 1109 km, 123.0° (Epoch: 03 January)

Event Time Altitude Azimuth Distance (km) Brightness Sun altitude
Rises 14:44:25 0° 128° (SE) 3,944 7.5 -23.8°
Reaches altitude 10° 14:47:12 10° 118° (ESE) 2,979 6.4 -23.4°
Maximum altitude 14:53:04 34° 55° (NE) 1,723 4.3 -22.6°
Enters shadow 14:56:09 23° 10° (N) 2,139 4.4 -22.2°
